YAHSAT 1B

Last updated on Nov. 18, 2019, 4:21 a.m. UTC

1 38245U 12016A   19321.43660010  .00000133  00000-0  00000+0 0  9994
2 38245   0.0188 292.9283 0002437 331.3337 356.7539  1.00271215 27810
UTC
Height (km)
Latitude
Longitude
Inclination
Orbital Period
UTC large
Height (km)
Speed (km/s)
/
Latitude / Longitude
Inclination (degrees)
Orbital Period (minutes)
Azimuth
Elevation
Range (km)
Doppler Factor
iOS Compass Heading
iOS Angle

Next 30 passes for location: Hong Kong

Rise time Rise Azimuth (degrees) Set time Set Azimuth (degrees) Duration Max altitude (degrees)

No matching passes for this satellites